Location: Charant-Kari
(42.0642°N, 44.5397°E)
Time: 15:22:22
(UTC+00:00)

Daily predictions for brighter satellites

Satellite Brightness Start Highest point End
(mag) Time Altitude Azimuth Time Altitude Azimuth Time Altitude Azimuth
Cosmos 1674 3.4 17:14:28 10° SSE 17:17:49 33° E 17:21:11 10° NNE
ASTRO E2 4.4 17:19:24 10° SW 17:22:00 17° S 17:24:36 10° SE
SPOT 3 Rocket 3.9 17:17:51 10° SE 17:22:50 50° ENE 17:27:51 10° N
Resurs 1-3 3.8 17:20:02 10° S 17:24:25 79° WSW 17:28:49 10° NNW
Cosmos 1025 Rocket 4.1 17:23:20 10° SSE 17:27:04 28° E 17:30:47 10° NNE
Cosmos 1727 Rocket 4.0 17:23:45 10° S 17:30:02 78° E 17:36:19 10° N
SL-8 R/B 3.8 17:25:56 10° WNW 17:30:45 76° NNE 17:35:32 10° ESE
Meteor 1-16 Rocket 4.4 17:25:53 10° N 17:31:10 50° ENE 17:36:18 10° SSE
Cosmos 1605 Rocket 4.4 17:25:36 10° NNW 17:31:57 67° W 17:38:11 10° S
ATLAS 3B R/B 2.8 17:26:00 10° S 17:32:11 47° ESE 17:38:32 10° NE
Cosmos 1110 Rocket 4.0 17:29:22 10° S 17:34:27 65° ESE 17:39:38 10° NNE
Cosmos 2322 4.2 17:30:05 10° S 17:35:14 38° ESE 17:40:26 10° NE
Cosmos 1953 2.7 17:32:18 10° N 17:36:14 47° ENE 17:39:57 11° SSE
Cosmos 1844 Rocket 2.9 17:31:38 10° NNW 17:37:18 64° ENE 17:42:34 12° SE
Cosmos 2278 Rocket 4.3 17:34:46 10° NNE 17:37:36 14° NE 17:40:28 10° ENE
COSMOS 2428 3.7 17:33:18 10° SSE 17:38:04 28° ESE 17:42:51 10° NE
Cosmos 1340 3.9 17:38:13 12° SE 17:40:51 24° E 17:43:56 10° NE
Aureole 1 Rocket 4.3 17:39:38 10° NNW 17:45:57 72° ENE 17:53:21 12° SSE
MetOp-B 4.2 17:43:37 10° SSE 17:48:54 72° ENE 17:54:15 10° N
BREEZE-M DEB (TANK) 3.2 17:47:58 10° NW 17:51:37 38° NNE 17:53:16 14° E
Cosmos 2263 Rocket 4.4 17:47:47 10° NW 17:51:53 21° W 17:55:58 10° SSW
Cosmos 1459 Rocket 4.0 17:46:18 10° N 17:52:20 64° E 17:57:54 12° SSE
FALCON 9 DEB 3.2 17:50:31 10° WSW 17:53:37 69° NW 17:56:45 10° NE
USA 81 4.4 17:49:14 10° N 17:54:28 67° W 17:59:40 10° S
Cosmos 1802 Rocket 4.3 17:48:28 10° N 17:54:39 55° E 18:00:00 14° SSE
Cosmos 1975 Rocket 3.3 17:51:31 10° SSW 17:55:51 72° W 18:00:16 10° N
USA 245 4.3 17:52:19 14° SSE 17:56:42 64° ENE 18:02:35 10° N
Cosmos 1626 2.1 17:57:25 11° S 18:00:53 66° E 18:04:34 10° NNE
Cosmos 1000 Rocket 4.4 17:57:50 10° S 18:03:58 84° E 18:10:08 10° N
CZ-2C R/B 3.8 18:02:03 10° NNE 18:06:51 89° WNW 18:11:37 10° SSW
ERS-1 Rocket 3.6 18:04:01 17° SE 18:07:25 41° ENE 18:12:08 10° N
Cosmos 1900 4.3 18:03:09 10° NNW 18:08:05 87° ENE 18:11:29 20° SSE
Cosmos 1908 3.3 18:05:20 10° NNW 18:09:12 75° W 18:12:14 16° S
Terra 3.0 18:06:47 16° ESE 18:09:38 29° ENE 18:13:44 10° N
Cosmos 405 3.6 18:07:20 10° N 18:10:36 38° ENE 18:12:07 24° SE
Resurs 01 Rocket 2.7 18:08:35 10° S 18:12:43 41° W 18:16:55 10° NNW
Cosmos 2333 4.3 18:08:39 10° SSW 18:14:25 85° WNW 18:20:11 10° NNE
Spot 2 Rocket 3.5 18:10:56 18° SSE 18:14:40 71° ENE 18:19:44 10° N
FALCON 9 DEB 4.4 18:14:06 10° WSW 18:17:03 39° NNW 18:20:01 10° NE
JB-3 4.3 18:15:39 10° NNE 18:19:40 85° ESE 18:23:12 14° S
SPOT 5 3.2 18:18:12 21° SE 18:21:24 54° ENE 18:26:07 10° N
BREEZE-M DEB (TANK) 1.9 18:19:32 10° WSW 18:21:52 63° NNW 18:25:52 10° ENE
Cosmos 2219 Rocket 2.1 18:18:33 10° SSW 18:24:13 82° ESE 18:29:56 10° NNE
Cosmos 1346 Rocket 3.9 18:28:01 25° ESE 18:28:54 27° E 18:32:21 10° NNE
Cosmos 2333 Rocket 2.4 18:23:40 10° SSW 18:29:25 79° WNW 18:35:11 10° NNE
Cosmos 2123 Rocket 4.0 18:25:29 12° S 18:31:24 85° E 18:37:46 10° N
SPOT 1/Viking Rocket 4.1 18:28:49 15° S 18:33:00 54° W 18:38:04 10° NNW
Meteor 2-5 Rocket 3.7 18:30:19 18° S 18:34:27 70° E 18:40:02 10° NNE
Cosmos 1844 4.2 18:31:29 10° NW 18:36:53 52° WSW 18:40:40 19° S
Cosmos 2233 Rocket 4.2 18:31:15 10° N 18:37:17 54° ENE 18:40:44 25° SE
Cosmos 2061 Rocket 4.0 18:31:31 10° N 18:37:59 90° W 18:42:28 21° S
Uosat 12 SS-18 rocket 4.1 18:34:39 10° SSW 18:38:57 89° WNW 18:43:52 10° NNE
SL-4 R/B 1.8 18:34:42 10° SW 18:38:58 71° SE 18:42:54 10° ENE
Cosmos 1544 Rocket 4.2 18:34:48 10° NNW 18:39:09 53° W 18:42:09 19° SSW
Cosmos 1302 Rocket 4.2 18:34:17 10° SSW 18:39:31 74° WNW 18:44:47 10° NNE
ATLAS CENTAUR R/B 1.8 18:37:52 10° NW 18:42:14 60° WSW 18:44:21 30° S
ATLAS CENTAUR R/B 3.8 18:43:28 23° ESE 18:44:02 23° ESE 18:50:10 10° ENE
SL-16 R/B 4.2 18:46:02 11° E 18:46:02 11° E 18:47:37 10° ENE
Cosmos 2237 Rocket 2.8 18:44:54 28° SE 18:46:49 36° ESE 18:51:55 10° NE
ARIANE 5 R/B 3.1 18:46:37 24° S 18:49:07 58° W 18:53:34 10° NNW
Lacrosse 5 rocket 4.2 18:46:48 10° WNW 18:49:20 18° NNW 18:51:51 10° NNE
Cosmos 2360 Rocket 4.3 18:44:53 10° WSW 18:49:37 27° NW 18:54:22 10° N
BREEZE-M DEB (TANK) 4.4 18:49:22 10° WNW 18:52:00 38° N 18:57:57 10° ENE
Cosmos 2016 Rocket 4.5 18:56:25 10° NNW 19:02:21 54° W 19:06:40 19° SSW
Meteor 1-24 Rocket 3.6 18:59:17 23° SSW 19:02:43 83° W 19:08:15 10° N
Cosmos 1455 3.5 18:59:46 10° NNE 19:03:01 26° ENE 19:03:22 25° E
SL-24 R/B 4.3 18:58:43 10° N 19:03:34 85° E 19:05:46 33° S
Cosmos 968 Rocket 3.5 19:06:26 10° NNW 19:11:32 69° WSW 19:13:33 37° S
Cosmos 2228 3.0 19:07:19 10° N 19:11:44 75° E 19:12:52 48° SSE
Cosmos 1300 3.8 19:10:32 10° NNW 19:14:04 37° W 19:15:21 28° SW
Cosmos 1867 3.5 19:09:50 10° NW 19:15:20 83° WSW 19:17:21 40° SSE
Cosmos 389 Rocket 2.2 19:13:43 10° N 19:17:10 82° E 19:17:17 80° ESE
Cosmos 1486 Rocket 4.0 19:16:05 10° NNW 19:21:17 77° WSW 19:23:03 42° S
COSMOS 2428 3.8 19:16:37 10° SW 19:22:05 44° WNW 19:27:35 10° NNE
Cosmos 1992 Rocket 4.1 19:19:00 24° SSW 19:22:14 74° WNW 19:27:29 10° NNE
Cosmos 2278 Rocket 2.2 19:16:59 10° NNW 19:22:42 76° ENE 19:24:47 40° SE
ATLAS 3B R/B 4.0 19:16:55 10° WSW 19:22:59 38° NW 19:29:16 10° NNE
NOSS 3-1 (C) 4.3 19:27:32 25° ESE 19:27:32 25° ESE 19:31:42 10° ENE
Cosmos 1464 Rocket 4.5 19:22:12 10° N 19:28:23 50° ENE 19:30:45 34° SE
H-2A R/B 4.0 19:24:34 10° N 19:28:33 54° WNW 19:30:09 32° SW
ATLAS 2A CENTAUR R/B 4.4 19:28:28 10° SW 19:31:50 14° SSW 19:31:50 14° SSW
Meteor 2-10 Rocket 3.7 19:30:52 10° NNW 19:35:49 58° W 19:37:26 39° SSW
Cosmos 1354 Rocket 4.0 19:33:01 10° NNW 19:38:23 75° ENE 19:39:51 48° SE
Cosmos 1943 Rocket 3.9 19:39:26 10° N 19:43:51 24° NE 19:46:47 16° E
Meteor 1-21 Rocket 4.3 19:43:22 47° SSE 19:44:49 63° E 19:50:29 10° NNE
Terra 3.2 19:45:40 24° SW 19:47:18 30° W 19:51:30 10° NW
Centaur D AC-28 4.3 19:43:25 28° S 19:47:18 37° SE 20:28:09 10° E
Centaur D AC-28 4.3 19:43:24 28° S 19:47:18 37° SE 20:28:09 10° E
Centaur D AC-28 4.3 19:43:25 28° S 19:47:19 37° SE 20:28:09 10° E
Centaur D AC-28 4.3 19:43:26 28° S 19:47:19 37° SE 20:28:09 10° E
Centaur D AC-28 4.3 19:43:24 28° S 19:47:19 37° SE 20:28:09 10° E
USA 215 3.2 19:42:35 10° NE 19:49:05 65° SE 19:52:41 28° SSW
Meteor 1-4 Rocket 4.1 19:47:49 10° NNE 19:50:17 24° ENE 19:50:17 24° ENE
COBE Rocket 4.3 19:55:24 45° ESE 19:56:25 53° ENE 20:01:11 10° N
Cosmos 1980 4.2 19:54:20 22° SW 19:57:58 56° WNW 20:03:35 10° NNE
Okean 1-7 Rocket 3.4 20:00:44 75° SSE 20:01:03 82° E 20:05:30 10° N
Cosmos 1441 Rocket 3.2 20:05:05 76° NNW 20:05:05 76° NNW 20:08:40 10° N
Cosmos 2034 Rocket 4.0 19:59:00 10° N 20:05:10 67° E 20:06:54 46° SE
Cosmos 1726 Rocket 4.2 20:01:21 10° NNW 20:05:34 44° W 20:06:11 41° WSW
Cosmos 1184 Rocket 4.0 20:08:26 37° NW 20:08:26 37° NW 20:11:04 10° N
Cosmos 2058 Rocket 3.0 20:04:13 10° NNW 20:08:37 69° W 20:08:55 66° SW
SJ 16-02 2.2 20:13:24 10° N 20:17:30 38° ENE 20:17:57 37° E
NOSS 2-3 (D) 4.5 20:19:46 35° E 20:19:46 35° E 20:22:57 10° NE
SL-4 R/B 3.9 20:15:13 10° W 20:18:48 29° NNW 20:22:09 10° NE
USA 267 4.2 20:15:29 10° E 20:21:37 45° NNE 20:27:46 10° NW
Cosmos 1703 3.8 20:23:04 51° WNW 20:23:04 51° WNW 20:26:55 10° N
Cosmos 724 4.3 20:21:48 10° NNW 20:27:59 80° ENE 20:29:42 49° SE
SL-16 R/B 2.1 20:27:52 57° SSW 20:29:07 87° ESE 20:34:49 10° NNE
Cosmos 2237 Rocket 3.6 20:26:40 14° WSW 20:30:52 34° WNW 20:35:57 10° N
GP-B 3.7 20:28:32 10° NNE 20:32:45 44° E 20:32:45 44° E
GEOS 3 Rocket 3.6 20:32:16 56° SE 20:33:30 86° NE 20:38:53 10° NW
Tsikada Rocket 3.9 20:32:08 54° S 20:33:40 82° E 20:39:51 10° N
NOSS 2-3 (C) 3.7 20:35:58 59° ENE 20:35:58 59° ENE 20:39:57 10° NE
Cosmos 1455 4.2 20:35:38 10° NW 20:38:15 19° W 20:38:15 19° W
USA 32 3.9 20:34:06 10° N 20:39:23 77° E 20:40:04 65° SE
ALOS 2 2.6 20:41:22 73° W 20:41:22 73° W 20:45:43 10° NNW
Cosmos 2369 Rocket 3.4 20:36:28 10° N 20:41:42 35° ENE 20:44:24 23° ESE
Aureole 3 3.9 20:42:36 10° N 20:46:42 61° E 20:46:58 60° E
Cosmos 1626 Rocket 4.2 20:51:40 45° W 20:51:58 46° WNW 20:56:15 10° N
Thor Agena Rocket 3.5 20:51:37 10° NNE 20:56:51 69° ESE 20:57:21 64° SE
Cosmos 1602 Rocket 4.0 21:00:22 52° W 21:00:33 53° W 21:04:57 10° N
Cosmos 2278 Rocket 4.2 21:03:00 10° WNW 21:06:02 15° W 21:06:37 15° WSW
Cosmos 1758 Rocket 3.6 21:08:37 73° WNW 21:08:37 73° WNW 21:12:59 10° N
Cosmos-2242 3.0 21:04:48 10° N 21:09:06 83° NE 21:09:06 83° NE
USA 229 DEB 3.5 21:07:29 48° SW 21:09:28 89° WNW 21:16:17 10° NE
USA 229 3.5 21:07:38 49° SW 21:09:34 90° SE 21:16:23 10° NE
Cosmos 540 Rocket 4.4 21:09:58 33° ESE 21:10:08 33° E 21:14:41 10° NE
Cosmos 2297 3.7 21:04:47 10° NNW 21:10:20 60° WSW 21:10:55 56° SW
Resurs 1-4 Rocket 4.3 21:08:47 10° ENE 21:10:55 12° E 21:12:21 11° ESE
Exosat Rocket 4.1 21:10:06 49° SSE 21:11:21 58° ESE 21:16:38 10° NNE
Cosmos 2058 4.3 21:17:26 28° E 21:17:26 28° E 21:20:46 10° NNE
NOSS 3-1 (C) 3.9 21:14:53 29° WSW 21:17:22 50° NW 21:23:25 10° NNE
Cosmos 2279 Rocket 4.0 21:11:44 10° N 21:17:59 71° E 21:19:43 48° SSE
Cosmos 990 Rocket 4.0 21:16:59 10° NNW 21:22:11 72° ENE 21:23:04 58° SE
Cosmos 1634 Rocket 4.1 21:16:24 10° NNW 21:22:40 68° W 21:24:11 51° SSW
Cosmos 841 Rocket 4.2 21:25:04 38° ESE 21:25:26 38° ESE 21:30:12 10° NE
USA 307 4.2 21:28:08 31° E 21:28:08 31° E 21:30:44 10° ENE
In-Cosmos 22 Rocket 4.1 21:26:34 63° SSW 21:27:31 87° W 21:33:00 10° N
Cosmos 1943 Rocket 2.3 21:22:33 10° NNW 21:27:54 53° WSW 21:28:17 52° WSW
NOSS 3-1 (A) 3.3 21:27:44 47° WSW 21:29:17 69° NW 21:35:28 10° NNE
Meteor 2-13 Rocket 4.4 21:29:15 54° S 21:30:45 80° E 21:36:57 10° N
USA 215 4.2 21:25:47 10° NE 21:31:55 45° NNW 21:38:02 10° W
CZ-2D R/B 3.8 21:32:18 10° NE 21:36:06 20° E 21:37:30 18° ESE
DELTA 2 R/B (1) 3.6 21:36:36 58° SE 21:36:36 58° SE 21:41:36 10° E
Meteor 1-27 4.3 21:30:57 10° NNW 21:36:24 58° W 21:37:14 53° SW
Cosmos 2221 3.4 21:34:44 10° N 21:38:45 38° ENE 21:39:20 36° E
Cosmos 1937 Rocket 3.9 21:33:43 10° NNW 21:38:59 58° ENE 21:40:38 40° SE
Cosmos 1892 3.4 21:39:30 47° NW 21:39:30 47° NW 21:42:51 10° N
PSLV R/B 3.8 21:36:23 10° N 21:40:42 60° WNW 21:40:56 59° W
Cosmos 1943 3.1 21:40:04 61° S 21:41:06 82° ESE 21:46:47 10° NNE
Cosmos 1898 Rocket 3.4 21:36:25 10° NNW 21:41:40 85° ENE 21:42:36 61° SSE
USA 308 3.5 21:43:35 46° E 21:43:35 46° E 21:46:54 10° ENE
Cosmos 1242 Rocket 3.9 21:46:58 10° N 21:50:15 32° ENE 21:50:23 32° E
EO 1 Del DPAF 3.5 21:47:02 10° N 21:50:18 59° NW 21:50:18 59° NW
Nadezhda 4 Rocket 4.0 21:49:32 46° SSE 21:51:21 68° E 21:57:25 10° NNE
Cosmos 1603 3.7 21:50:30 54° SW 21:51:50 80° WNW 21:57:31 10° NNE
Cosmos 1408 3.7 21:52:45 37° NW 21:52:45 37° NW 21:55:43 10° N
Cosmos 1437 Rocket 2.9 21:48:36 10° N 21:52:12 65° NE 21:52:12 65° NE
BREEZE M DEB (TANK) 4.4 21:49:47 35° SW 21:52:49 78° SSE 22:39:26 10° ENE
BREEZE M DEB (TANK) 4.4 21:49:46 35° SW 21:52:49 78° SSE 22:39:26 10° ENE
Cosmos 1869 4.3 21:51:56 10° NNW 21:55:16 38° WNW 21:55:16 38° WNW
SJ 16-02 3.3 21:52:41 10° NW 21:54:55 18° W 21:54:55 18° W
Cosmos 1814 Rocket 4.3 21:57:38 46° SE 21:58:31 52° ESE 22:03:32 10° NNE
USA 305 2.8 21:59:35 82° E 21:59:35 82° E 22:03:42 10° NE
USA 290 3.9 22:01:22 28° ENE 22:01:22 28° ENE 22:03:25 10° NE
Cosmos 1825 2.6 22:01:08 55° NW 22:01:08 55° NW 22:04:27 10° N
MOZ.5/SAFIR/RUBIN 5/SL-8 4.2 22:01:44 40° SE 22:03:08 57° ENE 22:07:49 10° N
Cosmos 1656 Rocket 3.6 21:58:34 10° NNW 22:04:17 84° WSW 22:05:54 49° SSE
USA 267 3.2 22:01:43 36° SSE 22:04:27 64° SW 22:10:57 10° NW
Helios 1A 3.0 22:04:59 64° ESE 22:05:25 71° ENE 22:09:37 10° N
Cosmos 372 Rocket 4.4 22:02:48 10° NNW 22:08:01 60° ENE 22:10:18 32° SE
YAOGAN 11 4.0 22:08:17 68° SSE 22:08:50 88° E 22:13:22 10° NNW
Cosmos 1932 4.3 22:04:20 10° NW 22:10:33 73° WSW 22:12:40 43° SSE
Lacrosse 4 Rocket 2.7 22:07:42 10° NNW 22:11:30 36° NE 22:13:41 20° ESE
NOSS 2-2 (D) 3.5 22:14:16 52° ENE 22:14:16 52° ENE 22:17:12 10° NE
SL-16 R/B 4.5 22:10:28 10° W 22:14:00 17° NW 22:17:34 10° N
Cosmos 1570 Rocket 4.0 22:12:59 53° S 22:14:07 72° ESE 22:19:21 10° NNE
Cosmos 858 Rocket 4.4 22:12:10 10° NNW 22:17:25 69° WSW 22:18:27 54° SSW
Cosmos 1633 2.8 22:20:51 57° E 22:20:51 57° E 22:24:10 10° NNE
Cosmos 405 Rocket 4.1 22:21:48 26° WNW 22:21:48 26° WNW 22:24:44 10° NNW
USA 306 3.1 22:21:18 55° W 22:22:01 67° NW 22:26:15 10° NE
Meteor 2-19 Rocket 4.5 22:22:18 39° S 22:24:41 75° E 22:30:48 10° NNE
Cosmos 2369 Rocket 2.9 22:20:33 10° NW 22:25:42 36° WSW 22:26:09 35° WSW
Cosmos 2098 Rocket 3.4 22:24:54 51° SW 22:26:01 67° W 22:30:24 10° N
ATLAS 5 CENTAUR R/B 1.1 22:28:40 75° SW 22:28:59 85° WNW 22:33:18 10° NE
Cosmos 2208 Rocket 4.0 22:30:19 47° S 22:31:57 83° ESE 22:37:26 10° NNE
Cosmos 1092 Rocket 3.9 22:31:59 39° S 22:34:26 88° E 22:40:37 10° N
SL-16 R/B 2.7 22:32:14 23° SSE 22:36:14 72° ENE 22:42:24 10° N
FALCON 9 DEB 3.2 22:33:56 10° NW 22:37:13 74° N 22:37:13 74° N
X-37B 1.0 22:38:18 61° NNE 22:38:18 61° NNE 22:41:22 10° E
Cosmos 921 Rocket 3.5 22:42:34 40° W 22:43:14 44° WNW 22:47:15 10° N
Cosmos 1428 Rocket 4.5 22:42:08 35° S 22:45:03 85° E 22:51:22 10° N
CZ-4C R/B 3.4 22:45:58 20° SE 22:47:44 24° ESE 22:52:00 10° ENE
UNK 3.7 22:47:49 35° SSE 22:49:45 81° ENE 22:54:23 10° N
Cosmos 2151 2.9 22:48:57 53° S 22:49:55 85° E 22:54:08 10° N
Resurs 1-4 Rocket 2.1 22:46:00 10° NNE 22:51:21 83° WNW 22:53:27 38° SSW
NOSS 2-2 (E) 4.1 22:51:32 31° WNW 22:52:16 35° NW 22:55:43 10° NNE
Aureole 3 Rocket 3.4 22:48:23 10° NNW 22:52:40 66° W 22:54:46 37° SSW
Cosmos 1842 Rocket 4.4 22:49:08 10° NNW 22:53:01 32° W 22:53:17 32° W
Cosmos 1782 4.3 22:50:33 10° N 22:54:12 33° ENE 22:57:00 15° SE
Cosmos 2292 Rocket 3.3 22:56:48 42° ESE 22:57:04 44° E 22:59:56 10° NNE
Cosmos 1606 3.4 22:54:32 10° NNW 22:58:05 37° W 22:58:05 37° W
ADEOS II 2.6 22:54:00 10° NNE 22:59:10 54° E 23:02:00 26° SSE
Cosmos 1076 Rocket 4.1 22:59:33 36° WSW 23:00:20 39° WNW 23:04:21 10° N
BREEZE-M DEB (TANK) 4.1 23:00:12 10° NW 23:02:13 20° N 23:04:03 10° ENE
NOSS 2-2 (C) 4.2 23:05:26 27° W 23:06:25 33° NW 23:09:46 10° NNE
USA 307 4.1 23:04:12 19° W 23:06:43 37° NNW 23:10:41 10° NE
FALCON 9 DEB 4.2 23:05:07 10° NW 23:08:04 40° NNE 23:11:01 10° ESE
IDEFIX/ARIANE 42P 3.8 23:05:17 10° NNE 23:10:05 36° E 23:13:59 14° SSE
ADEOS Rocket 3.4 23:06:24 10° SSE 23:13:42 80° ENE 23:20:19 10° NNW
NPP 3.7 23:08:25 10° N 23:13:47 67° WNW 23:16:25 30° SW
ERBS 2.1 23:13:53 62° WSW 23:14:21 82° NW 23:17:36 10° NE
SL-19 R/B 4.1 23:09:11 10° NNE 23:14:30 87° WNW 23:17:28 29° SSW
Cosmos 2221 4.3 23:13:11 10° NW 23:15:58 17° W 23:16:09 17° W
CZ-2D R/B 2.5 23:11:23 10° N 23:16:25 50° WNW 23:18:49 29° SW
Tianhe-1 2.7 23:20:49 22° SE 23:20:49 22° SE 23:22:55 10° E
Delta 2 Rocket 4.4 23:20:26 27° S 23:20:26 27° S 23:23:52 10° ESE
IRS-1D 3.7 23:15:46 10° NNE 23:20:51 65° ESE 23:23:58 23° S
Meteor 2-14 Rocket 4.5 23:17:31 22° S 23:21:36 79° E 23:27:46 10° N
DELTA 2 R/B (1) 3.5 23:17:20 12° W 23:22:23 67° S 23:27:53 10° ESE
USA 308 4.5 23:19:40 13° W 23:22:54 31° NNW 23:26:42 10° NE
Landsat 4 3.6 23:21:10 10° NNE 23:24:57 84° ESE 23:26:30 34° S
Helios 1B rocket 3.0 23:21:16 10° N 23:25:10 44° WNW 23:26:37 31° WSW
NOSS 5 (C) 4.4 23:22:28 10° NW 23:25:41 64° SW 23:29:18 12° SSE
Cosmos 1933 3.6 23:24:01 10° NNW 23:28:00 51° W 23:29:30 33° SSW
SeaSat 1 3.7 23:27:08 10° NE 23:31:34 32° ESE 23:35:20 13° S
Cosmos 1553 Rocket 3.9 23:26:14 10° N 23:32:31 76° W 23:37:30 16° S
Meteor 2-3 Rocket 4.0 23:33:30 25° SW 23:36:36 54° WNW 23:42:05 10° N
SL-4 R/B 3.6 23:36:19 10° NW 23:39:37 32° NNE 23:42:46 10° E
S3M 4.0 23:33:31 10° N 23:39:43 84° E 23:45:58 10° S
CZ-3B R/B 3.9 23:38:02 10° NW 23:42:09 26° NNE 23:44:21 10° E
Cosmos 1656 4.3 23:38:21 10° NNW 23:44:00 59° ENE 23:49:36 10° SE
COSMOS 2406 4.2 23:39:54 12° S 23:44:45 40° ESE 23:50:01 10° NE
GPS 2-04 Rocket1 3.6 23:45:07 27° SSW 23:45:45 28° S 23:49:09 10° SE
CENTAUR R/B 4.0 23:41:06 10° NNW 23:49:04 55° NE 23:57:46 10° SE
CZ-2C R/B 3.2 23:49:03 11° SSE 23:49:08 11° SSE 23:50:06 10° SE
Cosmos 1328 Rocket 3.5 23:45:11 10° N 23:49:34 83° W 23:53:34 12° S
Cosmos 1862 3.5 23:46:39 17° S 23:49:39 71° E 23:53:42 10° NNE
Lacrosse 4 Rocket 2.8 23:46:56 10° WNW 23:49:52 19° WSW 23:49:55 19° WSW
Lacrosse 5 rocket 2.4 23:46:53 10° NW 23:50:20 42° NE 23:53:53 10° ESE
